When you browse on this site, cookies collect data to enhance your experience and personalize the content and advertising you see.
Visit our Privacy Policy to learn more. By continuing to use the site, you agree to this use of cookies and data.
  • In Netherlands
  • List of Countries
  • For 7 days
  • Water Temperature
  • Satellite Maps
  • Weather Map
  • Weather Widgets
  • user-avatar
    Login

    Hourly Weather Koudougou

    Today, 16 July, Tuesday

    Time Temperature Precipitation Wind Pressure Humidity
    00:00 +27°C° 0.1 mm 3 mps 732 mmHg 65%
    01:00 +27°C° 0.2 mm 3 mps 732 mmHg 67%
    02:00 +27°C° 0.2 mm 3 mps 731 mmHg 69%
    03:00 +26°C° 0.2 mm 3 mps 731 mmHg 71%
    04:00 +26°C° 0 mm 2 mps 731 mmHg 73%
    05:00 +26°C° 0 mm 2 mps 731 mmHg 76%
    06:00 +26°C° 0 mm 2 mps 731 mmHg 78%
    07:00 +27°C° 0 mm 3 mps 732 mmHg 72%
    08:00 +28°C° 0 mm 4 mps 732 mmHg 66%
    09:00 +30°C° 0 mm 4 mps 733 mmHg 60%
    10:00 +32°C° 0 mm 4 mps 733 mmHg 54%
    11:00 +34°C° 0 mm 4 mps 733 mmHg 49%
    12:00 +35°C° 0 mm 4 mps 733 mmHg 43%
    13:00 +36°C° 0 mm 4 mps 733 mmHg 42%
    14:00 +36°C° 0 mm 4 mps 732 mmHg 41%
    15:00 +37°C° 0 mm 4 mps 732 mmHg 40%
    16:00 +36°C° 0 mm 4 mps 732 mmHg 43%
    17:00 +35°C° 0 mm 4 mps 732 mmHg 45%
    18:00 +34°C° 0 mm 4 mps 732 mmHg 48%
    19:00 +33°C° 0 mm 4 mps 732 mmHg 54%
    20:00 +32°C° 0 mm 4 mps 732 mmHg 60%
    21:00 +30°C° 0 mm 5 mps 733 mmHg 66%
    22:00 +29°C° 0 mm 4 mps 733 mmHg 69%
    23:00 +29°C° 0 mm 4 mps 733 mmHg 71%

    Tomorrow, 17 July, Wednesday

    Time Temperature Precipitation Wind Pressure Humidity
    00:00 +28°C° 0 mm 4 mps 733 mmHg 74%
    01:00 +28°C° 0 mm 4 mps 733 mmHg 75%
    02:00 +28°C° 0 mm 4 mps 733 mmHg 76%
    03:00 +27°C° 0 mm 4 mps 733 mmHg 78%
    04:00 +27°C° 0 mm 4 mps 733 mmHg 78%
    05:00 +27°C° 0 mm 4 mps 734 mmHg 77%
    06:00 +26°C° 0 mm 4 mps 734 mmHg 77%
    07:00 +28°C° 0 mm 4 mps 734 mmHg 72%
    08:00 +29°C° 0 mm 4 mps 735 mmHg 67%
    09:00 +30°C° 0 mm 4 mps 735 mmHg 61%
    10:00 +33°C° 0 mm 4 mps 735 mmHg 55%
    11:00 +34°C° 0 mm 4 mps 734 mmHg 49%
    12:00 +36°C° 0 mm 4 mps 734 mmHg 43%
    13:00 +37°C° 0 mm 3 mps 733 mmHg 40%
    14:00 +37°C° 0 mm 3 mps 732 mmHg 37%
    15:00 +38°C° 0 mm 2 mps 732 mmHg 34%
    16:00 +38°C° 0 mm 2 mps 731 mmHg 34%
    17:00 +38°C° 0 mm 2 mps 731 mmHg 34%
    18:00 +38°C° 0 mm 2 mps 731 mmHg 35%
    19:00 +36°C° 0 mm 3 mps 731 mmHg 38%
    20:00 +35°C° 0 mm 3 mps 731 mmHg 42%
    21:00 +34°C° 0 mm 4 mps 732 mmHg 46%
    22:00 +33°C° 0.1 mm 4 mps 732 mmHg 49%
    23:00 +32°C° 0.1 mm 5 mps 732 mmHg 53%

    Day after tomorrow, 18 July, Thursday

    Time Temperature Precipitation Wind Pressure Humidity
    00:00 +32°C° 0.1 mm 5 mps 732 mmHg 57%
    01:00 +30°C° 0 mm 5 mps 732 mmHg 59%
    02:00 +30°C° 0 mm 5 mps 732 mmHg 61%
    03:00 +29°C° 0 mm 5 mps 731 mmHg 64%
    04:00 +29°C° 0.6 mm 4 mps 732 mmHg 66%
    05:00 +28°C° 0.6 mm 4 mps 732 mmHg 69%
    06:00 +28°C° 0.6 mm 4 mps 732 mmHg 72%
    07:00 +28°C° 0.5 mm 5 mps 732 mmHg 71%
    08:00 +29°C° 0.5 mm 6 mps 733 mmHg 70%
    09:00 +29°C° 0.5 mm 7 mps 733 mmHg 69%
    10:00 +32°C° 0 mm 7 mps 733 mmHg 62%
    11:00 +34°C° 0 mm 7 mps 733 mmHg 56%
    12:00 +36°C° 0 mm 7 mps 732 mmHg 49%
    13:00 +36°C° 0 mm 6 mps 732 mmHg 45%
    14:00 +37°C° 0 mm 5 mps 731 mmHg 41%
    15:00 +38°C° 0 mm 4 mps 730 mmHg 37%
    16:00 +38°C° 0 mm 4 mps 730 mmHg 38%
    17:00 +37°C° 0 mm 4 mps 730 mmHg 39%
    18:00 +37°C° 0 mm 3 mps 730 mmHg 40%
    19:00 +35°C° 0 mm 4 mps 731 mmHg 45%
    20:00 +34°C° 0 mm 5 mps 731 mmHg 51%
    21:00 +33°C° 0 mm 6 mps 732 mmHg 56%
    22:00 +32°C° 0.1 mm 5 mps 732 mmHg 58%
    23:00 +30°C° 0.1 mm 5 mps 732 mmHg 61%

    19 July, Friday

    Time Temperature Precipitation Wind Pressure Humidity
    00:00 +29°C° 0.1 mm 4 mps 732 mmHg 63%
    01:00 +29°C° 1 mm 4 mps 732 mmHg 67%
    02:00 +28°C° 1 mm 4 mps 732 mmHg 70%
    03:00 +27°C° 1 mm 3 mps 732 mmHg 74%
    04:00 +27°C° 0.1 mm 3 mps 732 mmHg 75%
    05:00 +27°C° 0.1 mm 3 mps 732 mmHg 77%
    06:00 +27°C° 0.1 mm 3 mps 732 mmHg 78%
    07:00 +28°C° 0 mm 4 mps 733 mmHg 73%
    08:00 +29°C° 0 mm 5 mps 733 mmHg 68%
    09:00 +30°C° 0 mm 6 mps 733 mmHg 62%
    10:00 +33°C° 0 mm 5 mps 733 mmHg 56%
    11:00 +34°C° 0 mm 5 mps 733 mmHg 49%
    12:00 +36°C° 0 mm 5 mps 732 mmHg 43%
    13:00 +37°C° 0 mm 4 mps 732 mmHg 40%
    14:00 +38°C° 0 mm 4 mps 731 mmHg 38%
    15:00 +38°C° 0 mm 3 mps 731 mmHg 35%
    16:00 +38°C° 0 mm 3 mps 731 mmHg 37%
    17:00 +37°C° 0 mm 2 mps 731 mmHg 39%
    18:00 +37°C° 0 mm 2 mps 731 mmHg 40%
    19:00 +35°C° 0.4 mm 3 mps 731 mmHg 48%
    20:00 +33°C° 0.4 mm 4 mps 732 mmHg 57%
    21:00 +30°C° 0.4 mm 6 mps 732 mmHg 65%
    22:00 +29°C° 0.1 mm 5 mps 732 mmHg 69%
    23:00 +28°C° 0.1 mm 5 mps 732 mmHg 73%

    20 July, Saturday

    Time Temperature Precipitation Wind Pressure Humidity
    00:00 +28°C° 0.1 mm 4 mps 732 mmHg 78%
    01:00 +27°C° 0.6 mm 5 mps 732 mmHg 79%
    02:00 +27°C° 0.6 mm 5 mps 732 mmHg 80%
    03:00 +26°C° 0.6 mm 5 mps 732 mmHg 81%
    04:00 +26°C° 1.5 mm 4 mps 732 mmHg 82%
    05:00 +26°C° 1.5 mm 3 mps 733 mmHg 83%
    06:00 +26°C° 1.5 mm 3 mps 733 mmHg 85%
    07:00 +26°C° 0.3 mm 2 mps 734 mmHg 81%
    08:00 +27°C° 0.3 mm 2 mps 734 mmHg 77%
    09:00 +28°C° 0.3 mm 2 mps 735 mmHg 74%
    10:00 +29°C° 1.3 mm 2 mps 735 mmHg 71%
    11:00 +29°C° 1.3 mm 2 mps 735 mmHg 69%
    12:00 +30°C° 1.3 mm 3 mps 734 mmHg 66%
    13:00 +29°C° 2.6 mm 3 mps 733 mmHg 68%
    14:00 +28°C° 2.6 mm 3 mps 733 mmHg 71%
    15:00 +27°C° 2.6 mm 3 mps 732 mmHg 73%
    16:00 +28°C° 0 mm 3 mps 732 mmHg 71%
    17:00 +28°C° 0 mm 2 mps 731 mmHg 69%
    18:00 +29°C° 0 mm 2 mps 731 mmHg 66%
    19:00 +28°C° 0 mm 1 mps 732 mmHg 69%
    20:00 +28°C° 0 mm 1 mps 732 mmHg 72%
    21:00 +28°C° 0 mm 1 mps 732 mmHg 75%
    22:00 +28°C° 0 mm 1 mps 732 mmHg 76%
    23:00 +28°C° 0 mm 1 mps 733 mmHg 77%

    21 July, Sunday

    Time Temperature Precipitation Wind Pressure Humidity
    00:00 +27°C° 0 mm 1 mps 733 mmHg 78%
    01:00 +27°C° 0 mm 1 mps 732 mmHg 80%
    02:00 +27°C° 0 mm 2 mps 732 mmHg 81%
    03:00 +26°C° 0 mm 2 mps 732 mmHg 82%
    04:00 +26°C° 0 mm 2 mps 732 mmHg 84%
    05:00 +26°C° 0 mm 2 mps 732 mmHg 85%
    06:00 +26°C° 0 mm 3 mps 732 mmHg 86%
    07:00 +27°C° 0 mm 3 mps 733 mmHg 81%
    08:00 +28°C° 0 mm 4 mps 733 mmHg 76%
    09:00 +29°C° 0 mm 5 mps 733 mmHg 71%
    10:00 +32°C° 0 mm 5 mps 733 mmHg 64%
    11:00 +33°C° 0 mm 5 mps 733 mmHg 56%
    12:00 +35°C° 0 mm 4 mps 733 mmHg 49%
    13:00 +36°C° 0 mm 4 mps 732 mmHg 45%
    14:00 +36°C° 0 mm 3 mps 731 mmHg 42%
    15:00 +37°C° 0 mm 3 mps 731 mmHg 39%
    16:00 +37°C° 0 mm 2 mps 731 mmHg 40%
    17:00 +35°C° 0 mm 1 mps 730 mmHg 41%
    18:00 +35°C° 0 mm 1 mps 730 mmHg 43%
    19:00 +33°C° 1.4 mm 5 mps 731 mmHg 55%
    20:00 +28°C° 1.4 mm 9 mps 731 mmHg 68%
    21:00 +24°C° 1.4 mm 13 mps 731 mmHg 80%
    22:00 +24°C° 2.5 mm 10 mps 731 mmHg 81%
    23:00 +24°C° 2.5 mm 7 mps 732 mmHg 82%
    Show more